Regional Weather Roundup
Issued by NWS Albany, NY

Home | Current Version | Previous Version | Graphics & Text | Print | Product List | Glossary Off
Versions: 1 2 3 4 5 6 7 8 9 10 11 12 13 14 15 16 17 18 19 20 21 22 23 24 25 26 27 28 29 30 31 32 33 34 35 36 37 38 39 40 41 42 43 44 45 46 47 48 49 50

867
ASUS41 KALY 291210
RWRALY

NEW YORK STATE HOURLY WEATHER ROUNDUP
NATIONAL WEATHER SERVICE ALBANY NY
800 AM EDT MON MAY 29 2017

NOTE: "FAIR" INDICATES FEW OR NO CLOUDS BELOW 12,000 FEET WITH NO
SIGNIFICANT WEATHER AND/OR NO OBSTRUCTIONS TO VISIBILITY.

NYZ032-033-038>043-046>054-057>066-NYZ062>081-082-084-291300-
EAST


CITY           SKY/WX    TMP DP  RH WIND       PRES   REMARKS
ALBANY         LGT RAIN  56  49  77 SE6       29.91S
GLENS FALLS    LGT RAIN  58  48  69 SW6       29.92R
POUGHKEEPSIE   CLOUDY    56  51  84 CALM      29.91S HAZE
NEWBURGH       PTSUNNY   55  54  94 E12       29.92S
MONTGOMERY     RAIN      56  53  90 NE5       29.91R
WHITE PLAINS   LGT RAIN  55  53  93 E8        29.90S
ISLIP          LGT RAIN  56  54  93 E9        29.90R
NEW YORK CITY  CLOUDY    57  54  89 NE10      29.89S
CENTRAL PARK   CLOUDY    57  55  93 VRB6      29.92S
$$

NYZ005>009-017-018-044>046-055-056-291300-
CENTRAL


CITY           SKY/WX    TMP DP  RH WIND       PRES   REMARKS
FULTON         LGT RAIN  57  55  93 SE7       29.79R
SYRACUSE       LGT RAIN  55  55 100 E8        29.81R
ROME           RAIN      55  54  96 SE9       29.86R FOG
ELMIRA         LGT RAIN  60  55  83 VRB5      29.81R
BINGHAMTON     CLOUDY    51  51 100 SE12      29.86R
MONTICELLO     CLOUDY    52  52 100 E7        29.91S
$$

NYZ026>034-041>043-087-291300-
NORTH


CITY           SKY/WX    TMP DP  RH WIND       PRES   REMARKS
WATERTOWN      LGT RAIN  58  56  93 SE14G23   29.76R FOG
FORT DRUM      NOT AVBL
OGDENSBURG     RAIN      60  57  92 S9G17     29.78R
MASSENA        CLOUDY    66  55  67 S10       29.81R
SARANAC LAKE   CLOUDY    58  50  75 SW6       29.85R
PLATTSBURGH    CLOUDY    61  50  67 SE7       29.87R
$$

NYZ001>004-010>016-019>021-085-291300-
WEST


CITY           SKY/WX    TMP DP  RH WIND       PRES   REMARKS
NIAGARA FALLS  HVY RAIN  63  59  87 SW12      29.74S FOG
BUFFALO        HVY RAIN  60  58  92 SW9       29.76S FOG
DUNKIRK        LGT RAIN  62  60  93 SW5       29.77R FOG
JAMESTOWN      CLOUDY    57  55  94 SW12      29.80R
WELLSVILLE     PTSUNNY   62  59  90 VRB5      29.82S
ROCHESTER      RAIN      64  61  90 SW13      29.76R FOG
PENN YAN       RAIN      60  56  86 S7        29.79S FOG
$$

             KEY
       WCI = WIND CHILL INDEX
       VSB = VISIBILITY
       HX  = HEAT INDEX
$$




USA.gov is the U.S. government's official web portal to all federal, state and local government web resources and services.